Location: Andrest
(43.3200°N, 0.0641°E)
Time: 04:00:53
(UTC+00:00)

COSMO-SKYMED 1 - Pass Details

Date: 12 April 2021
Orbit: 621 x 623 km, 97.9° (Epoch: 18 May)

Event Time Altitude Azimuth Distance (km) Brightness Sun altitude
Rises 03:36:32 0° 109° (ESE) 2,899 6.6 -18.6°
Reaches altitude 10° 03:40:49 10° 68° (ENE) 2,000 6.4 -17.9°
Maximum altitude 03:41:27 10° 59° (ENE) 1,982 6.4 -17.8°
Drops below altitude 10° 03:42:05 10° 51° (NE) 2,002 6.4 -17.7°
Sets 03:46:23 0° 10° (N) 2,915 6.6 -17.0°
